ST-2

Last updated on Jan. 15, 2021, 6:31 a.m. UTC

1 37606U 11022B   21014.77271722 -.00000217  00000-0  00000-0 0  9992
2 37606   0.0210  65.6715 0001250 248.7585 166.1692  1.00265426 35436
UTC
Height (km)
Latitude
Longitude
Inclination
Orbital Period
UTC large
Height (km)
Speed (km/s)
/
Latitude / Longitude
Inclination (degrees)
Orbital Period (minutes)
Azimuth
Elevation
Range (km)
Doppler Factor
iOS Compass Heading
iOS Angle

Next 30 passes for location: Hong Kong

Rise time Rise Azimuth (degrees) Set time Set Azimuth (degrees) Duration Max altitude (degrees)

No matching passes for this satellites